SCP
0 0 0 0 0 0 0 0 0 1 1 2 2 2 2 2 2 2 2 1 1 1 1 1 0 0 0 0 0 0 0 0 0 0 0 0 0 0 0 0 0 0 0 0
0 0 0 0 0 0 0 0 1 1 2 2 2 2 2 2 2 2 1 1 1 1 1 1 0 0 0 0 0 0 0 0 0 0 0 0 0 0 0 0 0 0 0 0
0 0 0 0 0 0 0 1 1 1 2 2 2 2 2 2 2 2 1 1 1 1 0 0 0 0 0 0 0 0 0 0 0 0 0 0 0 0 0 0 0 0 0 0
0 0 0 0 1 1 1 1 1 2 1 1 2 2 2 2 2 1 1 1 1 0 0 0 0 0 0 0 0 0 0 0 0 0 0 0 0 0 0 0 0 0 0 0
0 0 0 1 1 1 1 1 1 2 2 1 2 2 2 2 2 1 1 1 0 0 0 0 0 0 0 0 0 0 0 0 0 0 0 0 0 0 0 0 0 0 0 0
0 0 0 1 1 1 1 1 1 2 2 1 2 2 2 2 2 2 1 1 0 0 0 0 0 0 0 0 0 0 0 0 0 0 0 0 0 0 0 0 0 0 0 0
0 0 1 1 1 1 1 2 2 2 2 2 2 3 4 3 3 2 1 0 0 0 0 0 0 0 0 0 0 0 0 0 0 0 0 0 0 0 0 0 0 0 0 0
1 1 1 1 1 2 2 2 2 3 3 3 3 4 4 3 2 1 1 0 0 0 0 0 0 0 0 0 0 0 0 0 0 0 0 0 0 0 0 0 0 0 0 0
1 1 1 1 1 1 2 3 3 3 3 3 3 2 2 1 1 1 0 0 0 0 0 0 0 0 0 0 0 0 0 0 0 0 0 0 0 0 0 0 0 0 0 0
1 1 0 0 1 1 1 2 2 2 2 2 1 1 0 0 0 0 0 0 0 0 0 0 0 0 0 0 0 0 0 0 0 0 0 0 0 0 0 0 0 0 0 0
1 0 0 0 1 1 1 2 2 2 2 1 1 1 0 0 0 0 0 0 0 0 0 0 0 0 0 0 0 0 0 0 0 0 0 0 0 0 0 0 0 0 0 0
1 0 0 0 1 1 1 1 2 2 1 1 1 0 0 0 0 0 0 0 0 0 0 0 0 0 0 0 0 0 0 0 0 0 0 0 0 0 0 0 0 0 0 0
0 0 0 0 0 1 1 1 1 1 1 1 1 0 0 0 0 0 0 0 0 0 0 0 0 0 0 0 0 0 0 0 0 0 0 0 0 0 0 0 0 0 0 0
0 0 0 0 1 1 1 1 1 1 1 1 0 0 0 0 0 0 0 0 0 0 0 0 0 0 0 0 0 0 0 0 0 0 0 0 0 0 0 0 0 0 0 0
0 0 0 0 1 1 1 1 0 0 0 0 0 0 0 0 0 0 0 0 0 0 0 0 0 0 0 0 0 0 0 0 0 0 0 0 0 0 0 0 0 0 0 0
0 0 0 0 1 1 0 0 0 0 0 0 0 0 0 0 0 0 0 0 0 0 0 0 0 0 0 0 0 0 0 0 0 0 0 0 0 0 0 0 0 0 0 0
0 0 0 0 0 0 0 0 0 0 0 0 0 0 0 0 0 0 0 0 0 0 0 0 0 0 0 0 0 0 0 0 0 0 0 0 0 0 0 0 0 0 0 0
0 0 0 0 0 0 0 0 0 0 0 0 0 0 0 0 0 0 0 0 0 0 0 0 0 0 0 0 0 0 0 0 0 0 0 0 0 0 0 0 0 0 0 0
0 0 0 0 0 0 0 0 0 0 0 0 0 0 0 0 0 0 0 0 0 0 0 0 0 0 0 0 0 0 0 0 0 0 0 0 0 0 0 0 0 0 0 0
0 0 0 0 0 0 0 0 0 0 0 0 0 0 0 0 0 0 0 0 0 0 0 0 0 0 0 0 0 0 0 0 0 0 0 0 0 0 0 0 0 0 0 0
0 0 0 0 0 0 0 0 0 0 0 0 0 0 0 0 0 0 0 0 0 0 0 0 0 0 0 0 0 0 0 0 0 0 0 0 0 0 0 0 0 0 0 0
1 1 0 0 0 0 0 0 0 0 0 0 0 0 0 0 0 0 0 0 0 0 0 0 0 0 0 0 0 0 0 0 0 0 0 0 0 0 0 0 0 0 0 0
1 1 1 1 1 1 1 0 0 0 0 0 0 0 0 0 0 0 0 0 0 0 0 0 0 0 0 0 0 0 0 0 0 0 0 0 0 0 0 0 0 0 0 0
1 1 1 1 1 1 1 1 1 0 0 0 0 0 0 0 0 0 0 0 0 0 0 0 0 0 0 0 0 0 0 0 0 0 0 0 0 0 0 0 0 0 0 0
1 1 1 1 1 1 1 1 1 0 0 0 0 0 0 0 0 0 0 0 0 0 0 0 0 0 0 0 0 0 0 0 0 0 0 0 0 0 0 0 0 0 0 0
1 1 1 1 1 1 1 1 1 0 0 0 0 0 0 0 0 0 0 0 0 0 0 0 0 0 0 0 0 0 0 0 0 0 0 0 0 0 0 0 0 0 0 0
1 1 1 1 1 1 1 1 1 0 0 0 0 0 0 0 0 0 0 0 0 0 0 0 0 0 0 0 0 0 0 0 0 0 0 0 0 0 0 0 0 0 0 0
Wind_Speed
7 7 7 8 9 7 7 7 6 3 1 4 5 9 11 11 10 10 8 8 8 6 5 5 5 5 6 5 6 5 6 6 6 6 6 6 6 6 6 7 8 8 8 9
9 7 7 8 8 8 6 7 7 3 5 7 10 10 10 10 10 9 8 8 7 7 6 5 5 5 5 5 5 5 6 6 6 6 6 7 6 6 7 8 8 9 9 9
8 8 7 6 6 6 4 5 6 5 6 8 10 10 9 9 9 9 9 8 7 6 6 5 5 5 5 5 5 6 6 6 6 6 6 6 7 7 8 8 8 9 9 9
7 7 5 1 4 6 5 8 8 9 9 9 10 10 9 8 9 9 9 8 7 6 6 5 5 5 5 5 5 6 6 6 6 5 6 6 7 7 7 7 7 7 8 8
5 5 3 3 7 7 4 7 9 9 9 10 11 10 8 8 9 10 9 8 7 6 6 5 5 5 5 6 6 6 6 6 5 5 6 6 7 7 6 6 6 7 6 7
6 4 2 3 7 9 3 5 6 6 6 7 7 3 6 9 11 11 10 8 7 7 7 6 5 5 6 6 6 7 6 6 5 5 5 6 6 6 5 5 6 6 6 7
7 5 1 6 8 7 2 3 3 4 4 4 3 6 12 12 12 11 10 8 8 7 6 5 5 5 6 6 7 7 6 6 6 5 5 6 5 5 5 5 6 6 6 6
4 3 2 10 8 7 5 4 6 7 8 10 13 14 14 13 12 11 10 9 8 7 6 5 5 6 7 7 7 6 6 6 6 4 5 5 5 5 5 5 5 5 5 5
3 2 3 5 6 6 5 6 7 9 11 12 13 13 13 12 11 10 10 9 7 8 7 6 5 6 8 7 6 6 6 6 5 5 5 4 4 4 3 3 3 3 4 5
3 3 5 6 7 8 9 8 9 10 11 12 13 13 13 12 10 10 9 8 7 8 8 6 6 6 6 6 6 7 7 6 5 5 5 4 3 3 4 3 3 3 3 4
2 3 5 7 7 8 9 9 9 10 10 12 13 13 12 11 10 9 8 7 7 7 8 8 7 7 7 7 6 7 6 5 5 5 5 6 6 6 6 6 4 3 3 4
2 3 3 4 5 6 7 8 9 10 11 12 12 12 12 10 9 9 9 7 7 7 7 8 7 7 7 6 6 6 5 5 4 4 4 5 6 7 10 8 10 12 10 8
3 3 4 4 5 6 7 8 9 10 11 11 11 11 12 11 9 9 9 8 8 7 7 7 7 7 7 6 6 5 5 4 3 4 4 3 5 6 5 5 8 10 9 9
3 3 3 5 6 6 8 9 10 11 11 11 11 11 11 11 10 10 9 9 9 8 7 7 7 7 6 6 6 5 4 3 3 3 3 4 4 5 5 6 5 4 3 3
2 2 3 6 6 7 8 9 10 11 11 11 11 11 11 10 10 9 9 9 9 8 8 8 8 7 6 6 5 4 4 3 3 3 3 3 3 4 5 6 6 5 4 3
2 3 4 6 7 7 9 9 10 10 10 10 10 11 11 10 10 10 9 8 8 8 8 7 7 7 7 6 5 4 3 1 1 2 4 4 4 4 4 5 5 5 5 5
3 3 5 6 7 8 8 9 9 10 10 10 11 11 11 11 10 10 9 8 8 7 8 8 7 7 7 6 5 5 5 5 3 3 3 3 3 3 4 4 4 4 4 4
4 4 4 5 6 7 8 9 9 10 10 11 11 11 11 11 10 10 9 9 8 8 7 8 8 8 7 7 5 4 4 5 5 3 3 2 2 3 3 3 4 5 5 5
4 5 6 6 6 6 7 9 10 10 11 11 11 11 10 9 10 10 10 9 9 8 8 7 6 6 6 5 3 4 4 4 4 3 3 3 3 4 3 4 4 5 6 5
5 5 6 7 7 7 8 9 10 10 10 11 11 11 10 10 10 10 9 8 7 7 8 8 8 6 6 6 4 4 4 5 4 4 4 5 4 4 4 4 4 4 4 4
4 5 6 6 7 7 8 9 10 10 10 11 11 10 10 10 10 9 9 8 7 8 9 9 7 6 6 5 6 6 5 5 5 5 5 5 4 4 4 3 4 3 3 3
3 4 5 6 7 7 7 8 9 11 11 11 11 11 11 10 10 9 9 6 8 9 9 9 8 6 5 5 6 7 6 5 5 5 5 5 4 4 4 4 4 4 4 3
2 2 4 5 6 6 7 8 9 9 10 11 11 11 10 9 8 8 8 7 9 10 9 8 8 9 7 6 7 7 7 6 6 6 6 6 6 5 5 5 5 4 3 3
2 2 3 5 6 7 7 8 8 8 9 10 10 10 9 8 8 8 8 10 10 12 9 7 12 12 10 8 8 8 7 7 7 7 7 7 6 6 6 6 5 4 4 5
2 2 3 4 5 6 7 7 8 8 10 8 10 11 10 8 8 8 8 10 12 12 10 9 12 12 10 9 9 9 8 7 6 6 6 6 6 6 5 5 5 5 5 5
3 3 3 4 4 4 6 7 7 7 8 8 9 9 9 8 9 8 7 11 14 12 10 9 11 11 11 11 10 10 8 7 7 7 7 6 7 7 5 5 6 5 4 5
5 4 4 5 5 5 5 6 7 8 8 8 8 9 10 10 9 9 11 10 11 12 11 10 11 12 12 12 11 10 9 9 8 8 8 7 7 6 6 7 5 5 5 5
Wind_Direction
272 253 250 264 272 271 276 287 294 310 72 141 134 125 128 128 128 123 118 109 100 94 83 72 67 64 60 57 57 57 60 65 65 64 62 64 67 67 63 60 63 61 62 57
289 276 269 271 278 283 291 300 310 12 85 110 117 118 124 129 133 130 125 116 110 103 92 79 72 70 69 62 63 64 66 68 71 73 70 68 66 66 70 66 63 63 62 59
288 288 271 263 287 286 308 3 359 25 87 111 114 118 127 133 132 129 125 116 110 105 95 85 74 69 75 74 74 74 74 75 74 77 77 72 72 70 71 71 70 68 65 63
289 295 278 344 359 3 30 50 55 80 93 93 100 102 108 120 125 125 121 118 113 107 101 94 89 84 82 82 81 86 85 78 70 72 80 79 77 77 74 73 74 76 72 67
278 276 289 22 12 353 358 58 52 77 93 105 110 110 105 111 117 119 118 117 115 113 111 103 96 95 95 89 85 86 84 80 71 75 85 89 84 81 78 79 78 79 77 72
277 289 289 1 337 318 322 85 56 82 108 132 151 154 127 124 119 116 116 118 118 114 110 105 99 101 98 96 92 89 86 84 78 76 83 89 91 90 87 85 85 85 80 73
269 273 66 2 333 327 4 53 58 99 121 128 98 87 119 123 118 120 121 119 118 116 113 110 111 109 103 102 100 98 96 92 86 81 84 85 86 87 90 92 91 88 86 79
288 289 33 5 6 37 44 62 81 93 95 96 99 108 119 122 124 128 126 125 123 121 116 111 115 115 104 99 102 104 101 99 96 93 93 92 85 84 89 96 99 99 98 93
32 55 61 39 52 57 55 68 79 93 101 111 116 122 125 126 128 130 128 126 126 124 121 115 114 115 108 107 109 110 105 100 100 100 85 83 89 97 98 100 102 109 107 102
64 67 64 54 55 59 64 73 84 98 111 116 121 127 129 130 131 130 128 131 129 127 123 120 117 112 112 118 120 116 114 113 110 106 95 84 67 65 61 48 56 75 89 98
80 87 83 60 57 67 75 79 90 101 110 118 124 129 132 134 134 132 132 130 129 127 123 122 117 115 119 121 118 114 117 120 121 113 103 85 69 52 63 51 48 59 54 73
47 48 60 73 68 75 88 92 101 109 113 119 126 131 133 131 132 132 132 130 127 126 124 126 125 122 120 121 120 117 120 128 128 124 124 123 111 88 55 68 68 68 68 75
57 55 75 87 85 91 98 104 110 116 121 124 128 132 132 131 134 134 135 134 133 131 129 127 126 125 126 127 125 121 123 129 133 135 138 135 130 126 116 81 64 66 70 77
83 94 102 102 99 103 107 110 116 118 122 126 131 134 132 134 137 139 139 137 134 132 132 129 127 128 130 131 135 135 139 147 157 154 155 144 139 145 146 142 131 114 91 87
76 95 115 114 110 114 120 121 122 125 127 130 136 138 139 141 141 140 139 137 134 135 137 136 137 138 142 142 146 157 161 158 164 163 165 153 157 154 146 141 136 137 143 162
117 126 130 129 136 137 137 137 136 136 137 140 143 143 144 143 141 141 142 143 145 145 143 141 142 147 154 157 160 156 138 124 200 187 165 163 162 151 143 144 143 152 166 167
167 163 154 147 148 147 146 147 145 144 145 147 146 148 148 147 147 147 147 148 146 145 148 151 156 161 164 168 180 174 164 162 204 220 180 163 161 160 156 157 160 165 155 142
180 174 162 157 153 152 151 149 146 147 149 151 151 153 155 156 157 154 152 150 151 154 159 164 166 170 172 179 196 194 173 172 192 188 158 155 162 170 171 174 169 156 149 168
150 155 157 154 156 155 152 150 150 150 152 155 157 159 160 161 158 156 158 162 167 167 169 163 161 179 176 174 203 205 192 183 179 171 159 165 220 206 190 186 183 175 173 174
131 144 148 152 157 157 155 151 151 153 158 161 161 162 165 166 164 165 169 174 179 171 164 163 178 190 187 183 228 230 199 188 180 170 181 200 211 203 205 198 188 182 181 183
133 142 148 153 154 158 159 157 157 161 164 167 169 170 170 172 173 172 176 179 175 169 165 166 189 192 195 185 202 235 211 198 194 189 200 212 211 210 215 207 195 191 195 205
124 140 150 149 152 157 160 161 165 169 169 174 177 175 174 177 180 181 186 184 174 167 174 181 195 193 184 201 212 224 218 206 203 203 207 213 215 219 217 213 212 207 205 207
131 145 153 154 158 161 164 170 175 176 176 181 183 181 182 183 185 187 188 188 178 176 195 193 179 165 172 215 232 228 219 216 215 209 209 215 218 222 220 219 220 216 207 209
163 164 161 162 165 169 176 183 179 180 182 187 187 185 186 188 195 199 193 184 177 174 198 182 166 168 185 223 238 235 222 218 220 222 217 215 217 219 217 217 220 214 210 220
177 185 181 177 180 183 184 187 182 187 191 192 190 187 193 199 200 197 193 179 172 178 190 179 178 181 202 227 235 237 234 230 228 230 225 222 227 228 225 218 214 217 220 223
192 204 194 207 208 200 192 192 192 192 197 196 195 192 195 199 201 194 190 182 180 192 200 185 187 196 217 230 232 233 236 229 219 226 234 232 233 235 233 232 230 229 229 230
205 204 200 211 211 209 207 201 201 199 201 203 200 194 195 197 198 198 197 189 184 194 208 203 197 202 216 227 229 229 230 233 233 227 223 227 235 238 237 232 235 235 235 239